Regional Weather Roundup
Issued by NWS

Home | Current Version | Previous Version | Graphics & Text | Print | Product List | Glossary Off
Versions: 1 2 3 4 5 6 7 8 9 10 11 12 13 14 15 16 17 18 19 20 21 22 23 24 25 26 27 28 29 30 31 32 33 34 35 36 37 38 39 40 41 42 43 44 45 46 47 48 49 50

000
ASUS43 KTOP 152008
RWRKS

WEATHER ROUNDUP FOR KANSAS
NATIONAL WEATHER SERVICE GOODLAND KS
300 PM CDT TUE APR 15 2014

NOTE:  "FAIR" INDICATES FEW OR NO CLOUDS BELOW 12,000 FEET WITH NO
SIGNIFICANT WEATHER AND/OR OBSTRUCTIONS TO VISIBILITY.

KSZ001>006-013>018-027>032-041>047-152100-
NORTHWEST KANSAS

CITY           SKY/WX    TMP DP  RH WIND       PRES   REMARKS
GOODLAND       CLOUDY    63  16  16 SW22G28   29.88F
HAYS           MOSUNNY   63  21  20 SW21G29   29.97F
HILL CITY      PTSUNNY   64  20  18 S22G31    29.91F
RUSSELL        MOSUNNY   64  19  17 SW21      29.97F
$$

KSZ061>065-074>080-084>089-152100-
SOUTHWEST KANSAS

CITY           SKY/WX    TMP DP  RH WIND       PRES   REMARKS
DODGE CITY     MOSUNNY   62  24  23 S22G31    30.00F
ELKHART          N/A     62  25  24 S20         N/A
GARDEN CITY    MOSUNNY   63  22  20 SW22G31   29.96F
GREAT BEND     SUNNY     63  19  19 SW21G26   30.00F
LIBERAL        SUNNY     63  27  25 S23G31    30.01F
PRATT          SUNNY     61  18  18 SW23      30.05F
$$

KSZ066>073-081>083-090>101-152100-
SOUTHEAST KANSAS

CITY           SKY/WX    TMP DP  RH WIND       PRES   REMARKS
CHANUTE        SUNNY     55  23  28 VRB7      30.16F
COFFEYVILLE    SUNNY     58  21  24 CALM      30.16F
HUTCHINSON     SUNNY     62  17  17 SW13G25   30.05F
MEDICINE LODGE   N/A     63  16  16 S12G26    30.06F
NEWTON         SUNNY     59  21  23 SW17      30.11F
PARSONS        SUNNY     59  25  27 NW6       30.17F
WICHITA INTL   MOSUNNY   61  19  19 S16       30.09F
WICHITA JABRA  SUNNY     60  22  23 S16       30.09F
WICHITA MCCONL SUNNY     60  16  18 S10G20    30.10F
WINFIELD       SUNNY     63  18  17 SW12G20   30.12F
$$

KSZ007>012-019>026-033>040-048>060-102>105-152100-
NORTHEAST KANSAS

CITY           SKY/WX    TMP DP  RH WIND       PRES   REMARKS
CONCORDIA      SUNNY     60  19  20 S20G25    30.00F
EMPORIA        SUNNY     57  22  25 S13G18    30.09F
LAWRENCE       SUNNY     53  24  32 CALM      30.13F
MANHATTAN      SUNNY     60  23  24 SW16G24   30.06F
OLATHE IND     SUNNY     51  24  34 MISG      30.15F
OLATHE EXE     SUNNY     50  24  36 VRB3      30.14F
SALINA         SUNNY     63  19  18 S16G30    30.04F
TOPEKA BILLARD SUNNY     54  24  31 S7G18     30.11F
TOPEKA FORBES  SUNNY     55  26  32 SW9G17    30.10F
$$



USA.gov is the U.S. government's official web portal to all federal, state and local government web resources and services.